Location: Costa Mesa
(33.6411°N, 117.9187°W)
Time: 01:18:26
(UTC+00:00)

Cosmos 1666 - Pass Details

Date: 10 September 2024
Orbit: 412 x 430 km, 82.5° (Epoch: 10 October)

Event Time Altitude Azimuth Distance (km) Brightness Sun altitude
Rises 12:12:03 0° 342° (NNW) 2,377 6.1 -17.1°
Reaches altitude 10° 12:14:13 10° 333° (NNW) 1,502 4.9 -16.7°
Enters shadow 12:15:50 23° 312° (NW) 947 3.7 -16.4°
